This demonstration page uses our WeatherBlox Daily Observations layout. Learn more.

Left ArrowRight Arrow

39.01783, -85.05884

Hourly Observations for August 13, 2016

Temp ( °F °C ) Dew Point ( °F °C ) Humidity (%) Winds ( mph kmh ) Pressure ( in mb ) Visibility ( mi km ) Precip ( " mm )
12:52 am 00:52 Mostly Cloudy 79 26.1 74 23.3 85 85 S 5 7 29.88 1012 10 16 N/A
1:52 am 01:52 Mostly Cloudy 78 25.6 74 23.3 87 87 S 6 9 29.87 1011 10 16 N/A
2:52 am 02:52 Partly Cloudy 79 26.1 74 23.3 85 85 SSW 6 9 29.86 1011 10 16 N/A
3:52 am 03:52 Cloudy 78 25.6 75 23.9 90 90 S 7 11 29.85 1011 10 16 N/A
4:52 am 04:52 Cloudy 78 25.6 75 23.9 90 90 S 6 9 29.86 1011 10 16 N/A
5:52 am 05:52 Partly Cloudy 77 25 74 23.3 90 90 SSW 8 13 29.85 1011 10 16 N/A
6:52 am 06:52 Partly Cloudy 77 25 74 23.3 90 90 S 8 13 29.86 1011 10 16 N/A
7:52 am 07:52 Mostly Cloudy 78 25.6 74 23.3 87 87 SSW 8 13 29.88 1012 10 16 N/A
8:52 am 08:52 Mostly Cloudy 79 26.1 73 22.8 82 82 SSW 8 13 29.89 1012 10 16 N/A
9:52 am 09:52 Mostly Cloudy 79 26.1 73 22.8 82 82 SSW 12 19 29.88 1012 10 16 N/A
10:52 am 10:52 Mostly Cloudy 81 27.2 74 23.3 79 79 SSW 16 26 29.89 1012 10 16 N/A
11:10 am 11:10 Mostly Cloudy 81 27 73 23 79 79 SSW 17 28 29.88 1012 10 16 N/A
11:52 am 11:52 Cloudy 81 27.2 73 22.8 77 77 SW 12 19 29.91 1013 10 16 N/A
12:52 pm 12:52 Cloudy 81 27.2 74 23.3 79 79 SSW 12 19 29.91 1013 10 16 N/A
1:07 pm 13:07 Cloudy with Light Rain 81 27 73 23 79 79 SW 10 17 29.88 1012 7 11 N/A
1:52 pm 13:52 Cloudy 83 28.3 73 22.8 72 72 SW 15 24 29.90 1012 10 16 N/A
2:52 pm 14:52 Cloudy 84 28.9 74 23.3 72 72 SSW 16 26 29.89 1012 10 16 N/A
3:52 pm 15:52 Cloudy with Light Rain 82 27.8 74 23.3 77 77 SW 10 17 29.89 1012 9 14 N/A
4:52 pm 16:52 Mostly Cloudy 83 28.3 74 23.3 74 74 SSW 9 15 29.88 1012 10 16 N/A
5:52 pm 17:52 Cloudy 79 26.1 76 24.4 90 90 SW 8 13 29.90 1012 10 16 0.01 0.25
6:52 pm 18:52 Mostly Cloudy 79 26.1 75 23.9 88 88 SW 6 9 29.92 1013 10 16 N/A
7:52 pm 19:52 Cloudy 77 25 74 23.3 90 90 SSW 6 9 29.92 1013 10 16 N/A
8:52 pm 20:52 Mostly Cloudy 76 24.4 74 23.3 94 94 SSW 5 7 29.94 1014 10 16 N/A
9:52 pm 21:52 Cloudy with Light Rain 77 25 75 23.9 94 94 W 7 11 29.95 1014 3 5 0.02 0.51
10:01 pm 22:01 Cloudy 75 24 73 23 94 94 W 9 15 29.97 1015 10 16 N/A
10:52 pm 22:52 Cloudy 74 23.3 73 22.8 97 97 SSW 6 9 29.96 1014 10 16 0.03 0.76
11:52 pm 23:52 Mostly Cloudy 74 23.3 74 23.3 100 100 WSW 3 6 29.97 1015 10 16 N/A

Powered by AerisWeather